Terminal Aerodrome Forecast
Issued by NWS

Home | Current Version | Previous Version | Text Only | Print | Product List | Glossary On
Versions: 1 2 3 4 5 6 7 8 9 10 11 12 13 14 15 16 17 18 19 20 21 22 23 24 25 26 27 28 29 30 31 32
000
FTAK31 PAFA 211536 AAA
TAFAOT
TAF AMD
PAOT 211536Z 2116/2212 25010KT P6SM SCT015 SCT025 BKN120
      TEMPO 2116/2118 BKN015
     FM212100 27007KT P6SM SCT015 BKN060=

USA.gov is the U.S. government's official web portal to all federal, state and local government web resources and services.